Wind_Speed
32 32 31 31 33 33 34 36 37 40 41 43 47 48 48 49 50 48 46 45 47 43 43 41 39 38 33 35 37 40 37 38 36 30 34 33 31 29 26 26 22 23 22 22
36 37 36 33 32 34 35 34 34 38 39 42 45 47 46 49 48 48 47 46 47 45 44 43 44 41 39 36 38 40 43 40 38 41 38 37 32 29 27 25 24 23 24 21
38 38 38 38 35 35 36 36 34 36 38 40 42 44 42 48 44 48 51 49 50 49 47 46 45 45 46 36 36 41 42 45 43 40 33 35 33 32 30 28 26 21 22 23
40 40 39 39 38 38 36 38 36 36 36 37 38 40 42 45 45 50 52 49 49 49 50 49 48 47 46 43 38 42 39 46 43 40 42 39 35 33 31 30 21 27 21 24
40 39 39 38 37 40 40 40 39 38 36 35 36 38 40 42 44 49 51 52 50 51 52 51 48 49 47 46 43 40 40 45 42 46 43 38 38 38 36 31 27 27 27 24
40 41 41 41 39 38 42 42 40 38 36 36 36 37 38 39 42 47 50 51 50 51 53 56 56 55 52 51 45 46 41 39 46 47 42 42 45 41 35 31 28 23 27 21
41 41 43 44 42 40 41 44 43 41 38 38 38 37 37 39 41 44 48 51 51 54 55 55 54 52 51 51 51 44 47 43 43 43 45 51 45 39 37 34 30 27 25 29
40 38 39 42 45 44 43 44 46 44 40 41 41 39 37 38 40 44 47 51 52 55 53 52 57 55 54 53 51 50 46 47 47 46 50 48 42 41 36 35 30 27 26 29
30 30 32 38 41 45 47 46 46 47 44 41 42 39 39 39 38 41 45 48 51 53 51 54 57 58 57 56 57 55 51 50 53 47 49 52 45 41 38 37 38 31 28 30
22 24 27 31 34 38 44 47 47 48 47 45 43 42 42 41 40 37 34 43 48 49 51 52 56 56 55 56 58 55 55 52 51 52 50 50 43 46 41 42 36 33 29 29
21 27 23 24 27 30 35 40 45 46 49 48 46 44 43 43 42 39 30 32 43 48 51 55 57 57 57 55 55 58 57 56 57 54 55 50 48 42 41 39 37 32 33 32
19 23 21 18 20 22 25 32 37 41 46 48 50 47 45 45 45 43 40 37 35 39 43 53 56 57 57 54 54 50 58 60 56 55 52 53 48 36 39 38 34 36 37 35
19 18 21 16 18 15 23 25 27 22 37 44 47 49 48 46 46 46 44 45 42 40 45 44 44 55 57 60 57 52 56 54 58 56 56 50 45 41 39 39 43 42 40 38
20 16 16 15 17 21 23 24 21 34 30 34 36 46 49 48 47 47 46 46 47 46 46 47 55 35 49 56 55 51 50 55 59 57 54 50 49 44 43 45 43 42 42 41
21 18 13 14 16 23 24 26 30 29 28 16 21 34 45 47 47 48 48 47 46 48 46 51 52 54 46 53 54 59 52 52 54 60 52 54 47 43 43 45 46 48 46 43
22 19 15 12 10 17 31 24 27 28 23 25 19 19 31 41 43 46 49 49 49 50 49 48 50 53 58 58 57 51 48 48 53 53 60 54 49 44 47 49 50 50 47 46
22 22 19 14 8 6 19 30 24 26 26 25 19 13 15 28 37 41 43 47 50 50 51 49 48 49 52 58 56 53 54 51 50 52 50 58 61 49 50 52 53 52 48 47
22 23 25 21 14 6 14 24 20 23 24 27 21 16 17 18 22 31 39 40 45 49 50 50 52 52 51 53 51 53 49 50 52 53 50 51 46 54 53 51 52 51 50 50
25 25 30 27 20 4 14 17 22 24 28 27 23 20 13 16 16 14 25 35 42 47 49 51 54 53 50 41 43 46 48 50 54 53 47 47 45 44 50 57 53 53 51 50
26 27 31 27 18 12 17 19 22 23 28 31 27 22 23 20 15 17 16 19 30 43 47 51 54 51 51 47 46 45 45 47 53 55 49 48 46 48 48 52 58 54 52 51
26 31 25 23 22 21 18 18 22 22 26 29 28 22 21 17 18 17 18 16 21 34 40 47 50 51 48 50 52 49 47 44 46 45 48 51 46 46 48 49 50 55 55 52
30 21 24 20 21 25 23 19 19 22 24 26 27 22 17 16 18 20 17 16 20 27 31 41 49 48 51 55 56 55 53 49 45 41 38 41 48 46 47 48 48 46 52 55
28 24 32 22 26 28 30 21 11 17 18 21 22 17 20 17 16 15 11 10 5 11 20 34 40 42 48 56 60 59 59 56 52 50 45 41 40 43 45 47 48 48 47 48
24 28 27 27 27 30 30 12 13 16 20 18 14 15 19 15 15 16 16 14 16 14 13 20 31 36 45 49 56 60 63 62 58 54 54 48 44 42 43 44 47 49 48 46
27 31 29 31 27 20 18 16 13 16 12 14 14 15 13 14 16 19 19 20 18 15 15 16 19 18 33 51 52 55 59 63 62 58 54 48 45 45 43 45 49 51 50 47
21 28 24 21 25 21 19 14 14 13 15 15 17 18 17 19 20 22 27 29 28 23 22 29 27 29 35 47 48 53 59 62 62 62 57 51 48 44 44 46 50 51 51 50
27 29 25 14 13 12 9 18 17 16 19 21 22 23 23 25 25 27 27 29 28 28 33 36 37 36 41 56 54 51 53 59 61 61 59 55 51 47 45 44 48 49 50 51
Wind_Direction
278 275 272 270 266 262 254 249 245 241 239 237 236 232 231 230 231 230 229 227 229 224 225 222 223 222 223 222 220 224 222 224 222 222 223 223 223 226 227 232 233 239 243 249
281 278 272 267 264 261 258 250 244 240 237 237 236 235 232 231 229 230 228 227 228 225 225 222 223 221 221 221 218 219 221 225 223 222 220 223 225 228 234 238 240 238 237 241
284 278 271 265 258 258 255 252 246 243 237 235 235 234 231 232 227 229 229 225 225 226 225 223 222 224 224 223 222 220 219 224 224 230 234 230 228 230 233 236 238 240 238 243
282 277 270 263 257 251 252 249 246 242 240 236 234 234 232 231 225 226 228 226 226 224 225 224 220 223 223 224 224 225 222 225 222 223 224 225 225 227 231 237 236 238 232 238
281 275 269 263 257 249 246 246 244 242 240 237 235 235 233 231 226 224 225 228 226 225 224 224 222 222 224 223 226 227 224 225 223 224 227 226 225 226 229 231 234 236 232 233
279 272 267 262 256 248 242 242 241 239 237 237 236 235 233 230 229 226 224 226 225 225 222 221 223 219 219 223 220 223 226 227 224 226 225 227 227 225 228 231 232 235 236 237
281 273 264 258 253 247 241 239 238 236 233 232 231 232 232 231 229 226 224 225 225 223 224 224 224 221 220 225 221 224 223 222 226 224 225 227 227 224 224 227 229 231 230 231
288 279 267 255 247 243 238 236 235 235 232 230 229 228 229 230 229 229 225 223 222 226 227 225 224 221 221 222 225 220 225 225 226 222 225 230 226 225 226 229 231 233 233 233
296 288 274 259 246 239 235 233 232 232 230 230 229 226 224 226 228 229 228 226 225 226 226 223 223 223 221 221 226 220 223 223 227 226 227 228 225 221 221 224 225 227 232 235
326 306 279 263 252 242 235 231 230 230 229 228 227 224 223 223 224 225 230 227 225 224 225 223 225 224 222 223 226 226 222 223 227 226 229 231 223 224 219 223 227 226 231 236
318 333 301 267 251 241 235 231 228 227 225 225 225 226 225 224 221 219 219 223 223 224 224 224 225 223 222 223 227 226 225 225 228 228 228 230 228 224 222 223 223 225 230 235
316 331 321 271 247 233 230 229 227 226 226 225 223 224 226 226 225 219 215 216 214 218 224 223 224 224 222 223 222 230 227 226 230 232 234 234 234 225 223 222 218 220 226 230
303 319 332 280 242 226 210 231 222 222 229 226 224 222 224 226 226 223 217 218 214 220 223 221 222 225 224 221 226 226 230 228 226 230 229 230 228 224 222 223 224 223 226 229
286 302 324 297 249 217 205 216 217 219 225 227 226 225 223 223 224 225 221 219 221 217 222 223 221 218 224 226 228 227 224 229 230 229 232 229 229 223 221 222 224 224 226 228
277 280 296 321 257 225 206 208 213 231 229 221 232 231 224 223 223 222 223 221 221 220 220 224 223 220 218 222 227 228 226 229 232 228 230 233 231 225 224 224 227 227 227 228
269 271 272 292 310 235 210 213 218 226 225 201 209 227 231 226 224 223 224 222 220 223 223 226 227 224 225 227 227 225 228 230 234 232 227 233 229 224 224 226 228 230 228 229
261 257 257 268 288 268 206 215 230 228 228 217 214 218 241 229 228 225 223 223 222 221 225 226 227 229 228 228 226 225 225 225 231 231 231 230 230 226 225 227 229 231 232 232
243 246 249 254 262 295 217 200 219 228 231 220 209 209 230 233 225 226 226 224 224 225 224 226 227 227 232 232 227 227 230 228 229 231 231 232 230 227 226 228 229 230 232 233
236 240 243 247 249 248 207 213 221 224 218 221 208 210 226 243 217 220 230 229 228 227 227 225 226 228 232 232 234 233 230 230 230 229 229 231 230 228 226 227 229 230 231 234
197 224 237 239 238 199 211 213 222 224 223 218 209 212 211 228 241 227 225 232 235 229 230 229 229 232 233 233 233 233 232 231 233 232 229 232 228 227 226 229 227 228 231 233
200 223 227 232 223 206 212 222 222 229 227 215 205 199 205 217 219 225 234 228 232 236 233 235 233 231 232 235 236 235 234 235 234 233 232 231 231 228 229 229 230 227 228 230
205 219 220 222 217 217 222 220 224 231 228 215 213 199 208 234 224 225 236 250 252 245 243 240 236 235 233 234 235 234 234 234 232 232 230 231 233 232 230 231 233 231 231 230
206 216 216 224 223 221 232 229 243 237 225 219 206 220 222 227 223 239 234 240 282 284 256 244 237 232 235 236 236 236 234 233 232 232 230 226 225 226 229 229 231 231 231 233
198 209 212 216 228 232 237 243 233 235 230 209 220 226 219 228 213 230 241 264 287 277 270 242 232 230 228 236 236 234 234 233 232 230 229 228 223 219 221 225 229 232 232 232
205 213 222 231 240 254 241 226 228 231 219 213 229 234 246 254 246 243 252 263 279 291 264 266 282 232 227 225 229 231 232 232 231 230 233 232 221 216 218 223 227 229 231 230
217 214 217 230 237 244 242 228 230 212 213 220 227 234 251 257 256 251 252 263 271 278 280 287 274 265 232 225 224 226 227 228 229 230 230 231 232 227 219 221 224 227 229 229
220 209 218 232 248 243 242 230 243 228 229 229 235 244 257 266 257 254 266 276 274 270 275 286 271 264 251 224 223 226 229 228 228 229 228 228 229 229 228 226 226 226 226 227
Height
5549 5548 5548 5549 5549 5551 5553 5557 5561 5564 5568 5574 5579 5585 5592 5599 5604 5612 5619 5626 5631 5639 5645 5652 5656 5662 5667 5671 5677 5681 5688 5690 5695 5705 5704 5708 5711 5715 5718 5720 5724 5725 5726 5727
5538 5538 5539 5539 5540 5541 5543 5546 5550 5553 5558 5563 5568 5573 5579 5585 5595 5600 5608 5616 5622 5629 5635 5642 5647 5652 5657 5662 5667 5673 5676 5682 5688 5689 5697 5699 5705 5711 5714 5716 5718 5720 5721 5724
5527 5527 5527 5528 5530 5531 5533 5536 5540 5542 5547 5552 5556 5562 5568 5573 5584 5590 5595 5603 5609 5617 5625 5631 5638 5643 5649 5655 5660 5663 5668 5672 5679 5685 5695 5697 5700 5704 5707 5710 5712 5717 5718 5718
5515 5514 5514 5515 5518 5520 5523 5525 5529 5532 5537 5541 5546 5551 5557 5562 5571 5577 5582 5592 5599 5606 5614 5620 5628 5634 5639 5646 5650 5654 5662 5663 5671 5677 5679 5686 5694 5697 5700 5703 5710 5708 5714 5713
5502 5501 5501 5502 5505 5508 5511 5514 5518 5522 5527 5531 5535 5540 5546 5552 5559 5565 5572 5579 5588 5594 5603 5610 5618 5624 5631 5636 5643 5647 5652 5656 5664 5666 5672 5679 5683 5688 5692 5698 5702 5704 5707 5709
5488 5487 5487 5488 5491 5495 5498 5502 5507 5511 5517 5521 5525 5530 5536 5541 5547 5554 5561 5567 5575 5583 5589 5596 5602 5609 5617 5624 5632 5637 5644 5650 5653 5657 5665 5669 5670 5678 5687 5693 5696 5700 5701 5707
5472 5471 5471 5473 5477 5482 5486 5490 5494 5500 5506 5510 5514 5519 5526 5531 5536 5543 5550 5556 5564 5567 5577 5586 5594 5601 5608 5615 5623 5628 5634 5639 5643 5650 5653 5652 5663 5673 5679 5685 5689 5692 5696 5698
5456 5455 5455 5457 5461 5466 5472 5476 5482 5487 5494 5499 5504 5510 5516 5521 5526 5532 5537 5543 5551 5556 5567 5575 5581 5589 5597 5604 5611 5619 5625 5630 5633 5638 5642 5649 5658 5664 5672 5677 5684 5687 5690 5692
5444 5442 5441 5441 5445 5450 5456 5463 5468 5474 5481 5488 5493 5500 5506 5511 5516 5521 5527 5533 5541 5549 5557 5561 5566 5577 5588 5595 5600 5608 5613 5619 5623 5632 5634 5636 5651 5657 5663 5668 5671 5679 5683 5686
5437 5433 5430 5429 5431 5436 5441 5449 5455 5461 5468 5476 5482 5488 5494 5500 5506 5513 5518 5523 5531 5537 5543 5550 5557 5568 5579 5582 5590 5597 5603 5608 5612 5621 5625 5631 5642 5645 5654 5658 5670 5672 5677 5680
5431 5427 5422 5420 5422 5425 5429 5435 5441 5447 5454 5461 5470 5476 5483 5490 5496 5502 5509 5515 5520 5526 5532 5540 5546 5555 5566 5574 5580 5585 5593 5598 5603 5611 5617 5624 5629 5640 5646 5651 5658 5665 5668 5671
5426 5422 5417 5414 5415 5418 5421 5426 5431 5436 5443 5450 5456 5465 5472 5478 5485 5493 5499 5504 5509 5514 5520 5529 5536 5544 5554 5562 5569 5576 5581 5587 5597 5604 5611 5617 5624 5634 5638 5644 5650 5654 5658 5662
5421 5418 5414 5410 5411 5414 5417 5420 5425 5430 5432 5439 5447 5453 5461 5468 5474 5482 5489 5493 5500 5506 5511 5519 5526 5532 5543 5549 5557 5566 5572 5579 5585 5592 5598 5606 5615 5623 5630 5634 5639 5644 5649 5654
5416 5414 5411 5407 5407 5408 5412 5415 5421 5423 5427 5432 5437 5442 5449 5456 5463 5470 5477 5483 5490 5497 5502 5507 5515 5525 5530 5538 5547 5554 5562 5568 5574 5581 5588 5597 5603 5613 5619 5624 5629 5634 5640 5645
5409 5409 5407 5404 5402 5404 5407 5411 5415 5418 5423 5429 5430 5432 5439 5445 5452 5459 5466 5474 5480 5486 5492 5497 5505 5513 5518 5525 5531 5538 5550 5557 5563 5573 5579 5585 5594 5603 5609 5615 5619 5624 5630 5635
5402 5403 5403 5402 5399 5399 5403 5407 5410 5413 5416 5421 5424 5427 5430 5435 5442 5449 5455 5462 5469 5475 5481 5489 5494 5501 5508 5512 5520 5535 5540 5548 5552 5560 5567 5573 5583 5592 5598 5604 5608 5613 5620 5626
5394 5395 5397 5397 5396 5396 5399 5404 5407 5410 5412 5416 5421 5424 5426 5428 5433 5439 5445 5451 5458 5465 5471 5479 5485 5490 5494 5499 5511 5524 5528 5536 5541 5547 5556 5561 5570 5580 5586 5591 5597 5604 5610 5616
5386 5388 5390 5392 5393 5393 5396 5400 5402 5405 5409 5412 5416 5421 5423 5424 5427 5432 5436 5442 5447 5455 5461 5469 5473 5479 5482 5490 5508 5514 5520 5524 5528 5537 5545 5550 5559 5566 5575 5580 5586 5593 5598 5603
5377 5381 5383 5386 5389 5392 5394 5396 5397 5400 5404 5406 5412 5416 5420 5420 5424 5427 5430 5433 5438 5443 5450 5456 5461 5468 5475 5491 5496 5502 5508 5513 5519 5525 5532 5538 5547 5555 5561 5567 5575 5581 5586 5592
5370 5374 5376 5382 5387 5389 5390 5391 5393 5394 5397 5402 5407 5411 5415 5418 5421 5424 5426 5426 5428 5434 5438 5442 5451 5464 5470 5477 5482 5487 5494 5501 5506 5512 5523 5528 5535 5542 5548 5553 5561 5568 5575 5580
5362 5365 5374 5378 5381 5383 5386 5387 5390 5392 5393 5398 5404 5406 5410 5413 5415 5418 5418 5420 5421 5423 5428 5434 5443 5452 5461 5465 5469 5476 5482 5490 5496 5503 5510 5517 5524 5532 5537 5542 5548 5557 5562 5568
5361 5365 5369 5373 5377 5379 5381 5383 5386 5387 5390 5394 5401 5404 5406 5408 5410 5412 5414 5414 5414 5417 5419 5421 5432 5445 5449 5449 5455 5462 5471 5479 5486 5492 5498 5505 5512 5519 5525 5531 5537 5545 5551 5557
5357 5360 5364 5370 5372 5373 5374 5378 5383 5385 5389 5393 5398 5401 5402 5404 5407 5408 5409 5409 5410 5409 5412 5415 5430 5428 5431 5433 5443 5449 5457 5465 5473 5479 5486 5493 5499 5506 5513 5519 5525 5531 5538 5544
5352 5357 5362 5364 5365 5368 5373 5379 5381 5384 5386 5390 5394 5396 5398 5401 5402 5403 5404 5405 5405 5406 5409 5412 5410 5411 5417 5422 5426 5434 5440 5447 5457 5464 5470 5479 5487 5494 5500 5507 5513 5518 5525 5532
5349 5354 5357 5361 5365 5368 5372 5376 5379 5382 5383 5386 5388 5392 5394 5395 5396 5398 5399 5398 5399 5400 5401 5399 5399 5400 5401 5403 5409 5414 5422 5430 5440 5451 5460 5468 5474 5481 5489 5494 5498 5504 5512 5519
5348 5352 5357 5359 5363 5366 5370 5374 5375 5378 5381 5383 5385 5387 5389 5390 5390 5392 5391 5392 5392 5392 5392 5391 5390 5389 5388 5389 5393 5396 5403 5413 5424 5435 5446 5456 5465 5472 5477 5481 5486 5493 5499 5505
5347 5351 5356 5358 5360 5363 5365 5369 5371 5374 5377 5379 5381 5382 5383 5384 5382 5384 5384 5383 5384 5385 5383 5380 5377 5377 5379 5379 5385 5392 5396 5403 5412 5422 5433 5442 5451 5459 5467 5473 5477 5482 5487 5492